Regional Weather Roundup
Issued by NWS

Home | Current Version | Previous Version | Text Only | Print | Product List | Glossary Off
Versions: 1 2 3 4 5 6 7 8 9 10 11 12 13 14 15 16 17 18 19 20 21 22 23 24 25 26 27 28 29 30 31 32 33 34 35 36 37 38 39 40 41 42 43 44 45 46 47 48 49 50

000
ASUS43 KOAX 031410
RWRNE

WEATHER ROUNDUP FOR NEBRASKA
NATIONAL WEATHER SERVICE OMAHA NE
800 AM CST SAT DEC 03 2016

NOTES: SATELLITE DATA IS BEING USED TO AUGMENT CLOUD COVER ABOVE
       12000 FEET.
       "FAIR" INDICATES FEW OR NO CLOUDS BELOW 12,000 FEET WITH NO
       SIGNIFICANT WEATHER AND/OR OBSTRUCTIONS TO VISIBILITY.

  * THESE STATIONS DO NOT REPORT WEATHER SUCH AS RAIN...SNOW OR FOG.

NEZ001>004-019>022-054>056-031500-
NEBRASKA PANHANDLE

CITY           SKY/WX    TMP DP  RH WIND       PRES   REMARKS
SCOTTSBLUFF    CLEAR     13   9  84 CALM      30.02S
ALLIANCE       CLEAR     21  17  84 S13       29.99F WCI   9
CHADRON        CLEAR     23  14  68 SW14      29.97F WCI  11
KIMBALL        CLEAR     14  13  95 SW7       30.01F WCI   4
SIDNEY         CLEAR     22  17  81 SW13      30.03F WCI  10
$$

NEZ057>060-069>072-079>082-031500-
SOUTHWEST NEBRASKA

CITY           SKY/WX    TMP DP  RH WIND       PRES   REMARKS
NORTH PLATTE   CLOUDY    32  24  72 S8        30.11F WCI  25
IMPERIAL       CLEAR     26  20  77 S7        30.11F WCI  18
LEXINGTON      CLOUDY    31  26  81 S7        30.17S WCI  24
MCCOOK         CLOUDY    25  21  85 CALM      30.16S
OGALLALA       CLOUDY    32  25  77 SW8       30.09F WCI  24
$$

NEZ005>010-023>029-035>040-094-031500-
NORTH CENTRAL NEBRASKA

CITY           SKY/WX    TMP DP  RH WIND       PRES   REMARKS
VALENTINE      CLOUDY    33  26  75 S9        30.06F WCI  25
AINSWORTH      CLOUDY    32  27  81 S8        30.08F WCI  25
BROKEN BOW     CLOUDY    32  27  81 S3        30.13F
O`NEILL        CLOUDY    28  27  94 S6        30.14F WCI  22
ORD            CLOUDY    31  25  78 S6        30.16F WCI  25
THEDFORD       CLOUDY    33  26  76 S7        30.09F WCI  27
$$

NEZ041-046>049-061>064-073>077-083>087-031500-
SOUTH CENTRAL NEBRASKA

CITY           SKY/WX    TMP DP  RH WIND       PRES   REMARKS
GRAND ISLAND   CLOUDY    30  27  88 S6        30.21S WCI  24
AURORA         CLOUDY    28  26  95 CALM      30.21S
HASTINGS       CLOUDY    30  26  85 S7        30.21F WCI  23
HEBRON         CLOUDY    28  26  93 CALM      30.24S
HOLDREGE       CLOUDY    31  27  84 S5        30.19R WCI  26
KEARNEY *      CLOUDY    28  23  80 CALM      30.19S
YORK           CLOUDY    28  28 100 S6        30.23S WCI  22
$$

NEZ011>018-030>034-042>045-031500-
NORTHEAST NEBRASKA

CITY           SKY/WX    TMP DP  RH WIND       PRES   REMARKS
NORFOLK        CLOUDY    23  21  92 SE3       30.20F
ALBION         CLOUDY    27  24  89 SE6       30.20S WCI  21
BLAIR          PTCLDY    28  26  95 SE5       30.26F FOG     WCI  22
FREMONT        PTCLDY    25  25 100 CALM      30.26F FOG
TEKAMAH        PTCLDY    23  21  92 S3        30.28F
WAYNE          CLOUDY    25  23  94 S3        30.23F
$$

NEZ050>053-065>068-078-088>093-031500-
SOUTHEAST NEBRASKA

CITY           SKY/WX    TMP DP  RH WIND       PRES   REMARKS
LINCOLN        PTCLDY    25  22  88 CALM      30.27F
OMAHA EPPLEY   CLOUDY    25  20  81 CALM      30.28F FOG
BEATRICE       CLOUDY    31  28  91 CALM      30.25S
FALLS CITY       N/A    N/A N/A N/A MISG      30.28F
NEBRASKA CITY  PTCLDY    26  25  98 E3        30.28S FOG
PLATTSMOUTH    MOCLDY    26  23  89 E5        30.27F FOG     WCI  20
$$

NEZ044-045-051>053-067-031500-
OMAHA AREA

CITY           SKY/WX    TMP DP  RH WIND       PRES   REMARKS
OMAHA EPPLEY   CLOUDY    25  20  81 CALM      30.28F FOG
BLAIR          PTCLDY    28  26  95 SE5       30.26F FOG     WCI  22
FREMONT        PTCLDY    25  25 100 CALM      30.26F FOG
MILLARD        PTCLDY    26  23  91 CALM      30.28F
OFFUTT AFB     MOCLDY    23  23 100 NE1       30.27F
PLATTSMOUTH    MOCLDY    26  23  89 E5        30.27F FOG     WCI  20
WAHOO          FAIR      24  22  93 CALM      30.26F
$$




USA.gov is the U.S. government's official web portal to all federal, state and local government web resources and services.